Location: *
(46.3500°N, 10.9000°E)
Time: 22:39:58
(UTC+00:00)

A-11 Canister half - Pass Details

Date: 26 April 2021
Orbit: 1526 x 1682 km, 47.3° (Epoch: 13 May)

Event Time Altitude Azimuth Distance (km) Brightness Sun altitude
Rises 13:10:22 0° 234° (SW) 4,818 12.3 49.3°
Reaches altitude 10° 13:13:28 10° 232° (SW) 3,854 12.0 48.9°
Maximum altitude 13:23:14 68° 152° (SSE) 1,770 10.3 47.6°
Drops below altitude 10° 13:33:15 10° 73° (ENE) 3,947 10.9 46.2°
Sets 13:36:28 0° 71° (ENE) 4,940 11.3 45.8°
